Location: Bay Ridge
(40.6340°N, 74.0146°W)
Time: 07:26:31
(UTC+00:00)

Cosmos 1408 Rocket - Pass Details

Date: 15 November 2019
Orbit: 602 x 630 km, 82.6° (Epoch: 09 December)

Event Time Altitude Azimuth Distance (km) Brightness Sun altitude
Rises 10:42:25 0° 193° (SSW) 2,837 7.0 -11.6°
Reaches altitude 10° 10:44:38 10° 196° (SSW) 1,940 6.1 -11.2°
Maximum altitude 10:48:53 65° 279° (W) 667 3.5 -10.4°
Drops below altitude 10° 10:53:12 10° 2° (N) 1,963 6.0 -9.6°
Sets 10:55:27 0° 5° (N) 2,875 6.9 -9.2°
